Papa, Hungary

3:43 PM CET on February 06, 2016 (GMT +0100)
Papa

Weather History for LHPA - January, 2014

Change the Weather History Date:

Monday, January 6, 2014

  Actual Average Record
Temperature  
Mean Temperature 40 °F -  
Max Temperature 51 °F - - ()
Min Temperature 30 °F - - ()
Degree Days  
Heating Degree Days 24    
Moisture  
Dew Point 38 °F    
Average Humidity 89    
Maximum Humidity 100    
Minimum Humidity 62    
Precipitation  
Precipitation 0.00 in - - ()
Sea Level Pressure  
Sea Level Pressure 30.09 in    
Wind  
Wind Speed 4 mph ()    
Max Wind Speed 11 mph    
Max Gust Speed -    
Visibility 4.4 miles    
Events      
T = Trace of Precipitation, MM = Missing Value Source: Averaged Metar Reports

Daily Weather History Graph

Daily Weather History Graph

Search for Another Location

Airport or City:

Trip Planner

Search our weather history database for the weather conditions in past years. The results will help you decide how hot, cold, wet, or windy it might be!

Date:

Astronomy

Jan. 06, 2014 Rise Set
Actual Time 7:36 AM CET 4:15 PM CET
Civil Twilight 7:00 AM CET 4:50 PM CET
Nautical Twilight 6:22 AM CET 5:29 PM CET
Astronomical Twilight 5:45 AM CET 6:06 PM CET
Moon 10:17 AM CET 10:56 PM CET
Length of Visible Light 9h 50m
Length of Day
8h 39m
Waxing Crescent, 32% of the Moon is Illuminated
Jan 6
Waxing Crescent
Jan 8
First Quarter
Jan 16
Full
Jan 24
Last Quarter
Jan 30
New

Hourly Weather History & Observations

Time (CET) Temp. Windchill Dew Point Humidity Pressure Visibility Wind Dir Wind Speed Gust Speed Precip Events Conditions
12:15 AM 44.6 °F 40.8 °F 41.0 °F 87% 30.01 in 6.2 mi NNE 6.7 mph - N/A   Mostly Cloudy
12:45 AM 44.6 °F 42.3 °F 41.0 °F 87% 30.01 in 6.2 mi NNE 4.5 mph - N/A   Mostly Cloudy
1:15 AM 44.6 °F 42.3 °F 41.0 °F 87% 30.01 in 6.2 mi NE 4.5 mph - N/A   Mostly Cloudy
1:45 AM 42.8 °F 40.2 °F 41.0 °F 93% 30.01 in 6.2 mi NE 4.5 mph - N/A   Mostly Cloudy
2:15 AM 41.0 °F - 39.2 °F 93% 30.04 in 6.2 mi NNE 2.2 mph - N/A   Mostly Cloudy
2:45 AM 37.4 °F 33.9 °F 37.4 °F 100% 30.04 in 5.0 mi NNW 4.5 mph - N/A   Unknown
3:15 AM 39.2 °F - 39.2 °F 100% 30.04 in 5.0 mi North 2.2 mph - N/A   Unknown
3:45 AM 37.4 °F - 37.4 °F 100% 30.04 in 5.0 mi Calm Calm - N/A   Unknown
4:15 AM 37.4 °F - 37.4 °F 100% 30.04 in 4.3 mi Calm Calm - N/A   Unknown
4:44 AM 33.8 °F - 33.8 °F 100% 30.06 in 3.1 mi SE 2.2 mph - N/A   Scattered Clouds
4:45 AM 33.8 °F - 33.8 °F 100% 30.06 in 3.1 mi SE 2.2 mph - N/A   Scattered Clouds
5:15 AM 35.6 °F - 35.6 °F 100% 30.06 in 3.1 mi SE 2.2 mph - N/A   Scattered Clouds
5:45 AM 33.8 °F - 33.8 °F 100% 30.06 in 2.5 mi SSE 2.2 mph - N/A   Partly Cloudy
6:15 AM 33.8 °F - 33.8 °F 100% 30.06 in 2.5 mi Calm Calm - N/A   Partly Cloudy
6:45 AM 33.8 °F - 33.8 °F 100% 30.09 in 2.5 mi Calm Calm - N/A   Partly Cloudy
7:15 AM 32.0 °F - 32.0 °F 100% 30.09 in 2.5 mi Calm Calm - N/A   Partly Cloudy
7:40 AM 30.2 °F 25.5 °F 30.2 °F 100% 30.09 in 3.7 mi SSE 4.5 mph - N/A   Scattered Clouds
7:45 AM 32.0 °F 27.6 °F 32.0 °F 100% 30.09 in 3.7 mi SSE 4.5 mph - N/A   Scattered Clouds
8:15 AM 33.8 °F 29.7 °F 33.8 °F 100% 30.09 in 6.2 mi East 4.5 mph - N/A   Scattered Clouds
8:45 AM 33.8 °F 29.7 °F 33.8 °F 100% 30.09 in - East 4.5 mph - N/A   Clear
9:15 AM 39.2 °F 34.4 °F 39.2 °F 100% 30.12 in - South 6.7 mph - N/A   Clear
9:45 AM 42.8 °F 38.7 °F 41.0 °F 93% 30.12 in - SW 6.7 mph - N/A   Clear
10:15 AM 44.6 °F 42.3 °F 41.0 °F 87% 30.12 in - SW 4.5 mph - N/A   Clear
10:45 AM 44.6 °F 42.3 °F 42.8 °F 93% 30.12 in - WSW 4.5 mph - N/A   Clear
11:15 AM 46.4 °F 44.4 °F 41.0 °F 81% 30.12 in - WSW 4.5 mph - N/A   Clear
11:45 AM 46.4 °F 44.4 °F 41.0 °F 81% 30.12 in - West 4.5 mph - N/A   Clear
12:15 PM 48.2 °F - 41.0 °F 76% 30.12 in - SSE 2.2 mph - N/A   Clear
12:45 PM 50.0 °F - 41.0 °F 71% 30.12 in - SW 4.5 mph - N/A   Clear
1:15 PM 50.0 °F - 41.0 °F 71% 30.12 in - South 4.5 mph - N/A   Clear
1:45 PM 50.0 °F - 41.0 °F 71% 30.09 in - SSE 6.7 mph - N/A   Clear
2:15 PM 50.0 °F - 41.0 °F 71% 30.09 in - South 6.7 mph - N/A   Clear
2:45 PM 51.8 °F - 39.2 °F 62% 30.09 in - South 6.7 mph - N/A   Clear
3:15 PM 50.0 °F - 41.0 °F 71% 30.09 in - SSW 6.7 mph - N/A   Clear
3:45 PM 48.2 °F - 41.0 °F 76% 30.12 in - South 8.9 mph - N/A   Clear
4:15 PM 46.4 °F 43.0 °F 39.2 °F 76% 30.12 in - SSW 6.7 mph - N/A   Clear
4:45 PM 44.6 °F 40.8 °F 39.2 °F 81% 30.12 in - South 6.7 mph - N/A   Clear
5:15 PM 42.8 °F 38.7 °F 39.2 °F 87% 30.12 in - SSE 6.7 mph - N/A   Clear
5:45 PM 42.8 °F 38.7 °F 39.2 °F 87% 30.12 in - SSE 6.7 mph - N/A   Clear
6:15 PM 41.0 °F 36.5 °F 39.2 °F 93% 30.12 in - South 6.7 mph - N/A   Clear
6:45 PM 41.0 °F 36.5 °F 37.4 °F 87% 30.12 in - South 6.7 mph - N/A   Clear
7:15 PM 41.0 °F 35.4 °F 37.4 °F 87% 30.12 in - SSE 8.9 mph - N/A   Clear
7:45 PM 41.0 °F 35.4 °F 37.4 °F 87% 30.12 in - South 8.9 mph - N/A   Clear
8:15 PM 41.0 °F 36.5 °F 37.4 °F 87% 30.12 in - SSE 6.7 mph - N/A   Clear
8:45 PM 41.0 °F 36.5 °F 37.4 °F 87% 30.12 in - South 6.7 mph - N/A   Clear
9:15 PM 42.8 °F 37.6 °F 37.4 °F 81% 30.12 in - SSE 8.9 mph - N/A   Clear
9:45 PM 41.0 °F 35.4 °F 37.4 °F 87% 30.12 in - SSE 8.9 mph - N/A   Clear
10:15 PM 42.8 °F 37.6 °F 39.2 °F 87% 30.12 in - SSE 8.9 mph - N/A   Clear
10:45 PM 42.8 °F 36.7 °F 39.2 °F 87% 30.09 in - SSE 11.2 mph - N/A   Clear
11:15 PM 42.8 °F 36.7 °F 39.2 °F 87% 30.09 in - SSE 11.2 mph - N/A   Clear
11:45 PM 42.8 °F 37.6 °F 39.2 °F 87% 30.09 in - South 8.9 mph - N/A   Clear